Location: Unspecified
(43.3830°N, 0.0000°E)
Time: 12:07:05
(UTC+00:00)

Explorer 7 - Pass Details

Date: 27 June 2019
Orbit: 485 x 680 km, 50.3° (Epoch: 19 July)

Event Time Altitude Azimuth Distance (km) Brightness Sun altitude
Rises 07:23:30 0° 244° (WSW) 2,677 9.8 30.1°
Reaches altitude 10° 07:25:40 10° 246° (WSW) 1,819 9.1 30.5°
Maximum altitude 07:29:49 76° 332° (NNW) 596 7.4 31.2°
Drops below altitude 10° 07:34:17 10° 59° (ENE) 1,951 10.7 32.1°
Sets 07:36:40 0° 61° (ENE) 2,892 11.4 32.5°
